Wakefield, VA

11:05 PM EDT on August 17, 2019 (GMT -0400)
Wakefield Municipal

Weather History for KAKQ - June, 2019

Change the Weather History Date:

Saturday, June 8, 2019

  Actual Average (KJGG) Record (KJGG)
Temperature  
Mean Temperature 73 °F -  
Max Temperature 75 °F 84 °F 100 °F (2008)
Min Temperature 70 °F 60 °F 43 °F (1977)
Cooling Degree Days 8    
Growing Degree Days 23 (Base 50)    
Moisture  
Dew Point 69 °F    
Average Humidity 90    
Maximum Humidity 94    
Minimum Humidity 76    
Precipitation  
Precipitation 1.13 in - - ()
Sea Level Pressure  
Sea Level Pressure 29.98 in    
Wind  
Wind Speed 3 mph (ENE)    
Max Wind Speed 7 mph    
Max Gust Speed -    
Visibility 4 miles    
Events Fog , Rain    
Averages and records for this station are not official NWS values.
T = Trace of Precipitation, MM = Missing Value Source: NWS Daily Summary

Daily Weather History Graph

Daily Weather History Graph

Search for Another Location

Airport or City:

Astronomy

Jun. 08, 2019 Rise Set
Actual Time 5:48 AM EDT 8:26 PM EDT
Civil Twilight 5:17 AM EDT 8:56 PM EDT
Nautical Twilight 4:39 AM EDT 9:34 PM EDT
Astronomical Twilight 3:57 AM EDT 10:17 PM EDT
Moon 11:10 AM EDT (6/8) 12:28 AM EDT (6/8)
Length of Visible Light 15h 39m
Length of Day
14h 37m
Waxing Crescent, 32% of the Moon is Illuminated
Jun 8
Waxing Crescent
Jun 10
First Quarter
Jun 17
Full
Jun 25
Last Quarter
Jul 2
New

Hourly Weather History & Observations

Time (EDT) Temp. Dew Point Humidity Pressure Visibility Wind Dir Wind Speed Gust Speed Precip Events Conditions
12:15 AM 72.0 °F 70.0 °F 93% 29.92 in 2.0 mi East 3.5 mph - 0.02 in Rain Light Rain
12:46 AM 72.0 °F 70.0 °F 93% 29.92 in 3.0 mi Variable 3.5 mph - 0.04 in Rain Light Rain
12:54 AM 72.0 °F 70.0 °F 93% 29.92 in 3.0 mi ENE 4.6 mph - 0.04 in Rain Light Rain
1:35 AM 72.0 °F 70.0 °F 93% 29.91 in 3.0 mi Calm Calm - 0.00 in Rain Light Rain
1:54 AM 72.0 °F 70.0 °F 93% 29.92 in 3.0 mi Calm Calm - 0.00 in Rain Light Rain
2:04 AM 72.0 °F 70.0 °F 93% 29.92 in 3.0 mi Calm Calm - 0.00 in Rain Light Rain
2:13 AM 72.0 °F 70.0 °F 93% 29.92 in 3.0 mi Calm Calm - 0.00 in Rain Light Rain
2:26 AM 72.0 °F 70.0 °F 93% 29.92 in 1.8 mi Calm Calm - 0.01 in Rain Light Rain
2:54 AM 72.0 °F 70.0 °F 93% 29.91 in 2.0 mi Calm Calm - 0.13 in Rain Light Rain
3:10 AM 72.0 °F 70.0 °F 93% 29.92 in 3.0 mi Calm Calm - 0.01 in Rain Light Rain
3:54 AM 72.0 °F 70.0 °F 93% 29.92 in 4.0 mi Variable 4.6 mph - 0.03 in Rain Light Rain
4:19 AM 72.0 °F 70.0 °F 93% 29.92 in 2.0 mi East 3.5 mph - 0.02 in Rain Rain
4:23 AM 72.0 °F 70.0 °F 93% 29.92 in 1.8 mi Calm Calm - 0.03 in Rain Rain
4:33 AM 72.0 °F 70.0 °F 93% 29.92 in 1.8 mi Calm Calm - 0.05 in Rain Rain
4:44 AM 72.0 °F 70.0 °F 93% 29.93 in 1.2 mi Calm Calm - 0.09 in Rain Heavy Rain
4:46 AM 72.0 °F 70.0 °F 93% 29.93 in 0.8 mi NE 3.5 mph - 0.11 in Rain Heavy Rain
4:54 AM 72.0 °F 70.0 °F 93% 29.93 in 0.5 mi NE 6.9 mph - 0.30 in Fog , Rain Heavy Rain
5:03 AM 72.0 °F 70.0 °F 93% 29.93 in 1.0 mi East 3.5 mph - 0.14 in Rain Heavy Rain
5:11 AM 72.0 °F 70.0 °F 93% 29.93 in 1.2 mi ENE 4.6 mph - 0.19 in Rain Heavy Rain
5:18 AM 72.0 °F 70.0 °F 93% 29.94 in 1.2 mi Calm Calm - 0.24 in Rain Heavy Rain
5:33 AM 72.0 °F 70.0 °F 93% 29.94 in 2.0 mi Calm Calm - 0.29 in Rain Rain
5:47 AM 71.6 °F 69.8 °F 94% 29.94 in 1.8 mi NE 3.5 mph - N/A Rain Rain
5:54 AM 72.0 °F 70.0 °F 93% 29.95 in 3.0 mi Calm Calm - 0.34 in Rain Light Rain
6:01 AM 72.0 °F 70.0 °F 93% 29.95 in 1.8 mi East 4.6 mph - 0.03 in Rain Heavy Rain
6:36 AM 71.1 °F 69.1 °F 93% 29.95 in 1.5 mi ENE 5.8 mph - 0.23 in Rain Rain
6:43 AM 71.1 °F 69.1 °F 93% 29.95 in 1.5 mi Variable 6.9 mph - 0.24 in Rain Rain
6:54 AM 71.1 °F 69.1 °F 93% 29.95 in 1.5 mi NE 3.5 mph - 0.26 in Rain Rain
7:01 AM 71.1 °F 69.1 °F 93% 29.96 in 1.5 mi ENE 3.5 mph - 0.01 in Rain Light Rain
7:14 AM 71.1 °F 69.1 °F 93% 29.96 in 2.5 mi NE 3.5 mph - 0.02 in Rain Light Rain
7:29 AM 71.1 °F 69.1 °F 93% 29.96 in 2.5 mi NE 3.5 mph - 0.02 in Rain Light Rain
7:44 AM 71.1 °F 69.1 °F 93% 29.97 in 3.0 mi NE 4.6 mph - 0.03 in Rain Light Rain
7:54 AM 72.0 °F 69.1 °F 91% 29.97 in 3.0 mi Variable 3.5 mph - 0.03 in Rain Light Rain
8:11 AM 72.0 °F 69.1 °F 91% 29.97 in 2.5 mi NE 4.6 mph - 0.00 in Rain Light Rain
8:20 AM 72.0 °F 69.1 °F 91% 29.97 in 3.0 mi Variable 5.8 mph - 0.00 in Rain Light Rain
8:54 AM 72.0 °F 69.1 °F 91% 29.98 in 3.0 mi Variable 4.6 mph - 0.00 in   Overcast
9:25 AM 73.0 °F 70.0 °F 90% 29.99 in 4.0 mi ENE 4.6 mph - N/A   Overcast
9:54 AM 73.0 °F 69.1 °F 87% 30.00 in 4.0 mi Variable 5.8 mph - N/A   Overcast
10:54 AM 73.0 °F 69.1 °F 87% 30.01 in 5.0 mi East 5.8 mph - N/A   Overcast
11:54 AM 73.9 °F 70.0 °F 87% 30.02 in 5.0 mi NE 5.8 mph - N/A   Overcast
12:54 PM 73.9 °F 69.1 °F 85% 30.04 in 6.0 mi East 4.6 mph - N/A   Haze
2:25 PM 73.0 °F 68.0 °F 84% 30.04 in 3.0 mi ENE 4.6 mph - 0.00 in Rain Light Rain
2:41 PM 73.0 °F 68.0 °F 84% 30.03 in 2.5 mi Variable 3.5 mph - 0.00 in Rain Light Rain
2:54 PM 73.0 °F 68.0 °F 84% 30.03 in 5.0 mi Variable 5.8 mph - 0.00 in   Haze
3:54 PM 75.0 °F 66.9 °F 76% 30.02 in 8.0 mi Variable 5.8 mph - N/A   Overcast
4:54 PM 73.9 °F 66.9 °F 79% 30.02 in 8.0 mi Variable 4.6 mph - N/A   Overcast
5:54 PM 73.9 °F 68.0 °F 82% 30.03 in 8.0 mi East 4.6 mph - N/A   Overcast
6:12 PM 73.9 °F 68.0 °F 82% 30.03 in 7.0 mi Variable 5.8 mph - N/A   Overcast
6:54 PM 73.0 °F 68.0 °F 84% 30.04 in 7.0 mi Variable 5.8 mph - N/A   Overcast
7:54 PM 73.0 °F 68.0 °F 84% 30.05 in 7.0 mi East 4.6 mph - N/A   Overcast
8:47 PM 72.0 °F 68.0 °F 87% 30.06 in 5.0 mi Calm Calm - 0.00 in   Overcast
8:54 PM 72.0 °F 68.0 °F 87% 30.06 in 3.0 mi Variable 3.5 mph - 0.00 in Rain Light Rain
9:29 PM 71.1 °F 68.0 °F 90% 30.05 in 8.0 mi ENE 3.5 mph - 0.00 in   Overcast
9:54 PM 71.1 °F 68.0 °F 90% 30.06 in 7.0 mi NE 4.6 mph - 0.00 in   Overcast
10:10 PM 71.1 °F 68.0 °F 90% 30.06 in 7.0 mi ENE 4.6 mph - N/A   Overcast
10:49 PM 71.6 °F 68.0 °F 88% 30.07 in 7.0 mi Variable 4.6 mph - N/A   Overcast
10:54 PM 71.1 °F 68.0 °F 90% 30.07 in 6.0 mi Variable 3.5 mph - N/A   Overcast
11:14 PM 71.1 °F 68.0 °F 90% 30.07 in 5.0 mi NE 4.6 mph - 0.00 in Rain Light Rain
11:54 PM 70.0 °F 68.0 °F 93% 30.08 in 6.0 mi Variable 3.5 mph - 0.00 in   Overcast